Weather reports worldwide

Advertisment
Alghero, Italy (16520): temperature & dewpoint: 02.07.2020 16:00:00 - 08.07.2020 16:00:00 (CEST)Alghero, Italy (16520): wind speed: 02.07.2020 16:00:00 - 08.07.2020 16:00:00 (CEST)Alghero, Italy (16520): wind direction: 02.07.2020 16:00:00 - 08.07.2020 16:00:00 (CEST)Alghero, Italy (16520): reduced air pressure: 02.07.2020 16:00:00 - 08.07.2020 16:00:00 (CEST)Alghero, Italy (16520): visibility: 02.07.2020 16:00:00 - 08.07.2020 16:00:00 (CEST)Alghero, Italy (16520): precipitation: 02.07.2020 16:00:00 - 08.07.2020 16:00:00 (CEST)
Date & Time tt [°C] td [°C] ff [km/h] ff [kn] dd ppp [hPa] vv [km] rr [mm]
08.07.2020 16:00:00 30,0 22,0 18 10 W - 10 -
08.07.2020 15:00:00 29,0 22,0 18 10 WNW - 10 -
08.07.2020 14:00:00 28,8 21,7 16 9 WNW 1015,8 10 -
08.07.2020 13:00:00 29,0 21,0 15 8 S - 10 -
08.07.2020 12:00:00 28,0 21,0 16 9 S - 10 -
08.07.2020 11:00:00 27,0 20,3 11 6 S 1015,7 10 0,0
08.07.2020 10:00:00 27,0 19,0 5 3 - - 10 -
08.07.2020 09:00:00 25,0 19,0 4 2 - - 10 -
08.07.2020 08:00:00 21,7 18,5 4 2 - 1014,8 10 -
08.07.2020 07:00:00 17,0 17,0 4 2 NW - 10 -
08.07.2020 06:00:00 17,0 16,0 4 2 NNW - 10 -
08.07.2020 05:00:00 17,3 16,2 5 3 E 1014,2 10 0,0
08.07.2020 04:00:00 18,0 17,0 4 2 N - 10 -
08.07.2020 03:00:00 18,0 17,0 2 1 NNW - 10 -
08.07.2020 02:00:00 18,3 16,8 4 2 - 1014,6 10 -
08.07.2020 01:00:00 - - - - - - - -
08.07.2020 00:00:00 20,0 19,0 2 1 - - 10 -
07.07.2020 23:00:00 21,0 18,9 4 2 SW 1014,0 10 0,0
07.07.2020 22:00:00 22,0 19,0 2 1 - - 10 -
07.07.2020 21:00:00 23,0 19,0 5 3 W - 10 -
07.07.2020 20:00:00 24,1 18,7 13 7 S 1012,6 10 -
07.07.2020 19:00:00 26,0 18,0 11 6 W - 10 -
07.07.2020 18:00:00 27,0 17,0 13 7 W - 10 -
07.07.2020 17:00:00 26,8 16,9 15 8 WNW 1012,1 10 0,0
07.07.2020 16:00:00 27,0 18,0 15 8 W - 10 -
07.07.2020 15:00:00 27,0 18,0 15 8 WNW - 10 -
07.07.2020 14:00:00 26,3 15,8 15 8 W 1011,8 10 -
07.07.2020 13:00:00 26,0 16,0 15 8 W - 10 -
07.07.2020 12:00:00 26,0 16,0 13 7 W - 10 -
07.07.2020 11:00:00 24,6 15,2 15 8 W 1010,9 10 0,0
07.07.2020 10:00:00 24,0 15,0 15 8 W - 10 -
07.07.2020 09:00:00 24,0 15,0 11 6 WNW - 10 -
07.07.2020 08:00:00 22,7 15,0 13 7 W 1009,9 10 -
07.07.2020 07:00:00 20,0 14,0 5 3 N - 10 -
07.07.2020 06:00:00 20,0 14,0 2 1 - - 10 -
07.07.2020 05:00:00 21,9 13,5 5 3 - 1009,5 10 0,0
07.07.2020 04:00:00 23,0 13,0 11 6 NW - 10 -
07.07.2020 03:00:00 22,0 16,0 9 5 WNW - 10 -
07.07.2020 02:00:00 20,3 17,2 5 3 SW 1010,3 15 -
07.07.2020 01:00:00 21,0 18,0 5 3 SW - 10 -
07.07.2020 00:00:00 22,0 19,0 9 5 SW - 10 -
06.07.2020 23:00:00 21,9 19,4 5 3 W 1010,6 10 0,0
06.07.2020 22:00:00 23,0 20,0 5 3 W - 10 -
06.07.2020 21:00:00 24,0 20,0 11 6 WNW - 10 -
06.07.2020 20:00:00 24,8 20,3 11 6 W 1010,4 10 -
06.07.2020 19:00:00 26,0 20,0 15 8 W - 10 -
06.07.2020 18:00:00 27,0 20,0 18 10 W - 10 -
06.07.2020 17:00:00 27,9 20,0 15 8 W 1010,4 10 0,0
06.07.2020 16:00:00 29,0 21,0 18 10 SW - 10 -
06.07.2020 15:00:00 28,0 21,0 21 11 SSW - 10 -
06.07.2020 14:00:00 27,1 20,1 24 13 S 1011,4 10 -
06.07.2020 13:00:00 27,0 20,0 21 11 S - 10 -
06.07.2020 12:00:00 26,0 20,0 22 12 SSW - 10 -
06.07.2020 11:00:00 25,4 19,7 18 10 SSW 1012,5 10 0,0
06.07.2020 10:00:00 25,0 19,0 15 8 S - 10 -
06.07.2020 09:00:00 23,0 19,0 13 7 SSW - 10 -
06.07.2020 08:00:00 21,1 17,8 4 2 - 1012,6 10 -
06.07.2020 07:00:00 18,0 17,0 4 2 - - 10 -
06.07.2020 06:00:00 - - - - - - - -
06.07.2020 05:00:00 17,5 16,5 4 2 E 1013,4 10 0,0
06.07.2020 04:00:00 - - - - - - - -
06.07.2020 03:00:00 - - - - - - - -
06.07.2020 02:00:00 18,2 17,1 2 1 ENE 1014,9 30 -
06.07.2020 01:00:00 19,0 18,0 2 1 - - 10 -
06.07.2020 00:00:00 19,0 18,0 4 2 - - 10 -
05.07.2020 23:00:00 20,5 18,6 5 3 SSW 1015,5 10 0,0
05.07.2020 22:00:00 21,0 19,0 8 4 SW - 10 -
05.07.2020 21:00:00 23,0 19,0 5 3 W - 10 -
05.07.2020 20:00:00 24,2 18,2 11 6 WSW 1014,9 10 -
05.07.2020 19:00:00 26,0 18,0 11 6 W - 10 -
05.07.2020 18:00:00 26,0 17,0 16 9 WSW - 10 -
05.07.2020 17:00:00 27,6 17,7 16 9 W 1016,1 10 0,0
05.07.2020 16:00:00 27,0 19,0 18 10 W - 10 -
05.07.2020 15:00:00 28,0 19,0 18 10 W - 10 -
05.07.2020 14:00:00 28,4 18,1 13 7 WNW 1017,1 10 -
05.07.2020 13:00:00 27,0 19,0 21 11 S - 10 -
05.07.2020 12:00:00 26,0 20,0 16 9 S - 10 -
05.07.2020 11:00:00 26,3 20,1 16 9 S 1018,0 10 0,0
05.07.2020 10:00:00 24,0 19,0 13 7 SSW - 10 -
05.07.2020 09:00:00 23,0 18,0 8 4 SSW - 10 -
05.07.2020 08:00:00 20,2 16,6 4 2 - 1017,9 10 -
05.07.2020 07:00:00 17,0 16,0 0 0 N - 10 -
05.07.2020 06:00:00 16,0 15,0 2 1 - - 10 -
05.07.2020 05:00:00 16,4 15,7 0 0 N 1017,9 10 0,0
05.07.2020 04:00:00 17,0 16,0 2 1 - - 10 -
05.07.2020 03:00:00 18,0 16,0 4 2 - - 10 -
05.07.2020 02:00:00 18,2 16,5 4 2 - 1018,9 10 -
05.07.2020 01:00:00 20,0 18,0 2 1 - - 10 -
05.07.2020 00:00:00 21,0 18,0 2 1 - - 10 -
04.07.2020 23:00:00 20,8 17,7 4 2 - 1018,8 10 0,0
04.07.2020 22:00:00 22,0 18,0 5 3 NNW - 10 -
04.07.2020 21:00:00 24,0 17,0 9 5 NW - 10 -
04.07.2020 20:00:00 24,9 16,5 15 8 NNW 1017,8 10 -
04.07.2020 19:00:00 26,0 17,0 15 8 NNW - 10 -
04.07.2020 18:00:00 27,0 18,0 15 8 N - 10 -
04.07.2020 17:00:00 26,9 18,3 18 10 NNW 1017,2 10 0,0
04.07.2020 16:00:00 27,0 17,0 21 11 NNW - 10 -
04.07.2020 15:00:00 28,0 18,0 15 8 NW - 10 -
04.07.2020 14:00:00 27,8 15,5 18 10 NNW 1017,3 10 -
04.07.2020 13:00:00 27,0 19,0 16 9 NNW - 10 -
04.07.2020 12:00:00 27,0 19,0 11 6 - - 10 -
04.07.2020 11:00:00 26,3 20,7 11 6 WSW 1016,2 10 0,0
04.07.2020 10:00:00 23,0 19,0 15 8 W - 10 -
04.07.2020 09:00:00 23,0 17,0 16 9 W - 10 -
04.07.2020 08:00:00 23,0 17,0 13 7 W - 10 -
04.07.2020 07:00:00 22,0 16,0 13 7 W - 10 -
04.07.2020 06:00:00 22,0 15,0 11 6 W - 10 -
04.07.2020 05:00:00 22,0 15,0 15 8 W - 10 -
04.07.2020 04:00:00 21,0 16,0 8 4 W - 10 -
04.07.2020 03:00:00 20,0 17,0 11 6 WSW - 10 -
04.07.2020 02:00:00 20,0 16,0 5 3 WSW - 10 -
04.07.2020 01:00:00 20,0 16,0 4 2 - - 10 -
04.07.2020 00:00:00 19,0 15,0 2 1 - - 10 -
03.07.2020 23:00:00 - - - - - - - -
03.07.2020 22:00:00 - - - - - - - -
03.07.2020 21:00:00 - - - - - - - -
03.07.2020 20:00:00 23,9 14,4 11 6 NNW 1015,9 10 -
03.07.2020 19:00:00 26,0 16,0 16 9 NW - 10 -
03.07.2020 18:00:00 26,0 16,0 18 10 NW - 10 -
03.07.2020 17:00:00 27,3 16,1 16 9 NW 1015,3 10 0,0
03.07.2020 16:00:00 28,0 15,0 18 10 NNW - 10 -
03.07.2020 15:00:00 30,0 12,0 16 9 N - 10 -
03.07.2020 14:00:00 28,3 14,5 16 9 NNW 1015,1 10 -
03.07.2020 13:00:00 29,0 15,0 16 9 NW - 10 -
03.07.2020 12:00:00 29,0 17,0 18 10 NW - 10 -
03.07.2020 11:00:00 28,4 18,3 11 6 NW 1014,3 10 0,0
03.07.2020 10:00:00 27,0 22,0 9 5 W - 10 -
03.07.2020 09:00:00 26,0 22,0 5 3 W - 10 -
03.07.2020 08:00:00 23,4 20,9 4 2 - 1013,6 10 -
03.07.2020 07:00:00 19,0 18,0 4 2 - - 10 -
03.07.2020 06:00:00 19,0 18,0 2 1 - - 10 -
03.07.2020 05:00:00 19,0 18,1 2 1 - 1012,8 10 0,0
03.07.2020 04:00:00 20,0 19,0 4 2 - - 10 -
03.07.2020 03:00:00 20,0 19,0 4 2 - - 10 -
03.07.2020 02:00:00 20,4 19,2 2 1 - 1013,1 10 -
03.07.2020 01:00:00 22,0 20,0 2 1 - - 10 -
03.07.2020 00:00:00 23,0 21,0 2 1 NNE - 10 -
02.07.2020 23:00:00 22,8 20,5 4 2 - 1012,9 10 0,0
02.07.2020 22:00:00 24,0 21,0 8 4 WNW - 10 -
02.07.2020 21:00:00 25,0 21,0 9 5 W - 10 -
02.07.2020 20:00:00 27,4 20,0 11 6 WNW 1012,3 10 -
02.07.2020 19:00:00 28,0 20,0 13 7 WNW - 10 -
02.07.2020 18:00:00 29,0 21,0 18 10 WNW - 10 -
02.07.2020 17:00:00 28,9 20,5 22 12 W 1012,2 10 0,0
02.07.2020 16:00:00 31,0 21,0 18 10 W - 10 -

tt = temperature
td = dewpoint
ff = wind speed
dd = wind direction
ppp = reduced air pressure
vv = visibility
rr = precipitation

Next stations